Volver al catálogo

STARLINK-36178

ActivoComunicacionesVLEO
NORAD 67025·PAYLOAD·🇺🇸 United States

Lanzado Dec 10, 2025 desde Vandenberg Space Force Base

Loading…

Próximos Pases (próximas 24 horas)

TLE

ActualizadoSource: CelesTrak SupGP

Época: Sep 15, 2026, 03:47 UTC

1 67025C 25293Y   26258.15812500  .00045356  00000+0  38002-2 0  2581
2 67025  70.0014 336.6880 0003470 268.1501 307.3193 14.98314905    16

Sigue STARLINK-36178 en tiempo real con AllMySat

Download on the App Store